IGO373H VOHS-VOTV

Flight info

Callsign IGO373H
Flight time N/A
Altitude 36000
Route LURGI7 LURGI Q21 BIA W118 CCB W43 DODSI Q13 TUMLA DCT DINKA DINKA
Aircraft A320/M-SDE3FGHIRWY/LB1

Departure

Time 2026-04-23 08:08
Airport Rajiv Gandhi International Airport (VOHS)

Arrival

Time N/A
Airport Thiruvananthapuram International Airport (VOTV)
Time Latitude Longitude Altitude Speed Heading
2026-04-23 07:40 17.23422 78.43077 1980 ft 0 kts 360°
2026-04-23 07:53 17.23415 78.43077 1980 ft 4 kts 360°
2026-04-23 07:53 17.23388 78.43077 1980 ft 4 kts 360°
2026-04-23 07:53 17.23361 78.43077 1982 ft 4 kts 353°
2026-04-23 07:53 17.23340 78.43087 1983 ft 4 kts 302°
2026-04-23 07:54 17.23332 78.43110 1982 ft 2 kts 270°
2026-04-23 07:54 17.23332 78.43095 1979 ft 4 kts 269°
2026-04-23 07:54 17.23332 78.43085 1981 ft 0 kts 270°
2026-04-23 07:56 17.23332 78.43083 1981 ft 1 kts 270°
2026-04-23 07:56 17.23332 78.43081 1981 ft 0 kts 270°
2026-04-23 07:58 17.23332 78.43077 1981 ft 1 kts 270°
2026-04-23 07:58 17.23332 78.43061 1981 ft 3 kts 270°
2026-04-23 07:59 17.23332 78.43036 1981 ft 4 kts 270°
2026-04-23 07:59 17.23331 78.42987 1980 ft 6 kts 269°
2026-04-23 07:59 17.23331 78.42957 1980 ft 7 kts 269°
2026-04-23 07:59 17.23330 78.42905 1980 ft 8 kts 269°
2026-04-23 08:00 17.23328 78.42846 1980 ft 9 kts 269°
2026-04-23 08:00 17.23327 78.42780 1982 ft 8 kts 269°
2026-04-23 08:00 17.23312 78.42733 1983 ft 7 kts 219°
2026-04-23 08:00 17.23263 78.42729 1982 ft 8 kts 178°
2026-04-23 08:01 17.23206 78.42730 1981 ft 9 kts 179°
2026-04-23 08:01 17.23143 78.42731 1981 ft 10 kts 179°
2026-04-23 08:01 17.23084 78.42709 1984 ft 10 kts 243°
2026-04-23 08:01 17.23078 78.42638 1981 ft 10 kts 270°
2026-04-23 08:02 17.23077 78.42560 1981 ft 11 kts 269°
2026-04-23 08:02 17.23076 78.42470 1980 ft 13 kts 269°
2026-04-23 08:02 17.23075 78.42367 1981 ft 15 kts 269°
2026-04-23 08:02 17.23073 78.42254 1982 ft 16 kts 269°
2026-04-23 08:03 17.23071 78.42135 1981 ft 17 kts 269°
2026-04-23 08:03 17.23070 78.42008 1980 ft 19 kts 269°
2026-04-23 08:03 17.23068 78.41865 1982 ft 21 kts 269°
2026-04-23 08:03 17.23066 78.41711 1980 ft 22 kts 269°
2026-04-23 08:04 17.23065 78.41550 1980 ft 23 kts 270°
2026-04-23 08:04 17.23063 78.41378 1979 ft 22 kts 267°
2026-04-23 08:04 17.23037 78.41250 1980 ft 13 kts 200°
2026-04-23 08:04 17.22979 78.41243 1982 ft 3 kts 177°
2026-04-23 08:05 17.22974 78.41243 1981 ft 1 kts 177°
2026-04-23 08:05 17.22964 78.41244 1980 ft 2 kts 177°
2026-04-23 08:05 17.22947 78.41247 1981 ft 3 kts 160°
2026-04-23 08:05 17.22927 78.41259 1980 ft 4 kts 144°
2026-04-23 08:06 17.22904 78.41278 1980 ft 5 kts 141°
2026-04-23 08:06 17.22877 78.41301 1981 ft 5 kts 141°
2026-04-23 08:06 17.22858 78.41333 1981 ft 6 kts 106°
2026-04-23 08:06 17.22857 78.41379 1982 ft 9 kts 90°
2026-04-23 08:07 17.22861 78.41653 1982 ft 70 kts 89°
2026-04-23 08:07 17.22871 78.42364 1979 ft 122 kts 89°
2026-04-23 08:07 17.22885 78.43395 1984 ft 160 kts 89°
2026-04-23 08:07 17.22905 78.44671 2160 ft 182 kts 89°
2026-04-23 08:08 17.22927 78.45989 2843 ft 179 kts 86°
2026-04-23 08:08 17.22940 78.47292 3488 ft 183 kts 88°
2026-04-23 08:08 17.22813 78.48668 3690 ft 204 kts 112°
2026-04-23 08:08 17.21869 78.49747 3833 ft 226 kts 154°
2026-04-23 08:09 17.20282 78.50254 4065 ft 249 kts 170°
2026-04-23 08:09 17.18482 78.50493 4331 ft 272 kts 174°
2026-04-23 08:09 17.16555 78.50678 4889 ft 282 kts 175°
2026-04-23 08:09 17.14586 78.50614 5614 ft 285 kts 190°
2026-04-23 08:10 17.12672 78.50061 6353 ft 287 kts 202°
2026-04-23 08:10 17.10800 78.49291 7049 ft 290 kts 201°
2026-04-23 08:10 17.06978 78.47837 8509 ft 294 kts 198°
2026-04-23 08:11 17.05038 78.47114 9207 ft 298 kts 199°
2026-04-23 08:11 17.03075 78.46377 9902 ft 301 kts 199°
2026-04-23 08:11 17.01074 78.45621 10339 ft 315 kts 199°
2026-04-23 08:11 16.98941 78.44813 10464 ft 337 kts 199°
2026-04-23 08:12 16.96665 78.44052 10820 ft 348 kts 191°
2026-04-23 08:12 16.94244 78.43754 11377 ft 351 kts 179°
2026-04-23 08:12 16.91803 78.43929 11961 ft 354 kts 172°
2026-04-23 08:12 16.89345 78.44194 12584 ft 356 kts 172°
2026-04-23 08:13 16.86870 78.44462 13192 ft 359 kts 172°
2026-04-23 08:13 16.84369 78.44732 13774 ft 363 kts 172°
2026-04-23 08:13 16.81852 78.45004 14311 ft 365 kts 172°
2026-04-23 08:13 16.79312 78.45278 14836 ft 368 kts 173°
2026-04-23 08:14 16.76756 78.45554 15373 ft 371 kts 173°
2026-04-23 08:14 16.74177 78.45830 15887 ft 374 kts 174°
2026-04-23 08:14 16.71578 78.46105 16404 ft 377 kts 174°
2026-04-23 08:14 16.68967 78.46381 16938 ft 379 kts 175°
2026-04-23 08:15 16.66373 78.46654 17461 ft 381 kts 175°
2026-04-23 08:15 16.63728 78.46934 17981 ft 383 kts 175°
2026-04-23 08:15 16.61035 78.47221 18454 ft 385 kts 175°
2026-04-23 08:15 16.58394 78.47505 18906 ft 387 kts 176°
2026-04-23 08:16 16.55679 78.47794 19400 ft 388 kts 176°
2026-04-23 08:16 16.52986 78.48080 19878 ft 390 kts 176°
2026-04-23 08:16 16.50284 78.48366 20363 ft 391 kts 176°
2026-04-23 08:16 16.47575 78.48651 20832 ft 392 kts 177°
2026-04-23 08:17 16.44854 78.48939 21292 ft 393 kts 177°
2026-04-23 08:17 16.42124 78.49229 21751 ft 395 kts 177°
2026-04-23 08:17 16.39389 78.49518 22209 ft 396 kts 177°
2026-04-23 08:17 16.36675 78.49805 22642 ft 398 kts 177°
2026-04-23 08:18 16.33917 78.50097 23075 ft 399 kts 178°
2026-04-23 08:18 16.31147 78.50389 23496 ft 401 kts 178°
2026-04-23 08:18 16.28367 78.50680 23859 ft 402 kts 178°
2026-04-23 08:18 16.25583 78.50973 24227 ft 403 kts 178°
2026-04-23 08:19 16.22788 78.51267 24592 ft 404 kts 179°
2026-04-23 08:19 16.19995 78.51286 24943 ft 400 kts 188°
2026-04-23 08:19 16.17243 78.50884 25269 ft 399 kts 192°
2026-04-23 08:19 16.14493 78.50438 25622 ft 401 kts 192°
2026-04-23 08:20 16.11735 78.49992 25988 ft 402 kts 192°
2026-04-23 08:20 16.08973 78.49547 26344 ft 403 kts 192°
2026-04-23 08:20 16.06200 78.49102 26699 ft 404 kts 192°
2026-04-23 08:20 16.03418 78.48658 27017 ft 405 kts 192°
2026-04-23 08:21 16.00629 78.48212 27339 ft 406 kts 192°
2026-04-23 08:21 15.97830 78.47763 27682 ft 408 kts 192°
2026-04-23 08:21 15.95024 78.47311 28024 ft 409 kts 192°
2026-04-23 08:21 15.92211 78.46858 28379 ft 410 kts 192°
2026-04-23 08:22 15.89388 78.46406 28721 ft 411 kts 192°
2026-04-23 08:22 15.86557 78.45950 29060 ft 413 kts 192°
2026-04-23 08:22 15.83711 78.45489 29399 ft 414 kts 192°
2026-04-23 08:22 15.80862 78.45032 29733 ft 415 kts 192°
2026-04-23 08:23 15.78006 78.44578 30078 ft 415 kts 192°
2026-04-23 08:23 15.75158 78.44125 30484 ft 413 kts 192°
2026-04-23 08:23 15.72323 78.43674 30894 ft 411 kts 192°
2026-04-23 08:23 15.69506 78.43227 31308 ft 409 kts 192°
2026-04-23 08:24 15.66700 78.42778 31719 ft 407 kts 192°
2026-04-23 08:24 15.63909 78.42327 32127 ft 405 kts 193°
2026-04-23 08:24 15.61129 78.41879 32547 ft 403 kts 193°
2026-04-23 08:24 15.58362 78.41435 32973 ft 401 kts 193°
2026-04-23 08:25 15.55610 78.40995 33399 ft 399 kts 193°
2026-04-23 08:25 15.52869 78.40559 33847 ft 397 kts 193°
2026-04-23 08:25 15.50148 78.40129 34211 ft 395 kts 193°
2026-04-23 08:25 15.47434 78.39698 34530 ft 394 kts 193°
2026-04-23 08:26 15.44728 78.39267 34848 ft 393 kts 193°
2026-04-23 08:26 15.42028 78.38838 35159 ft 392 kts 193°
2026-04-23 08:26 15.39335 78.38408 35462 ft 391 kts 193°
2026-04-23 08:26 15.36649 78.37976 35759 ft 390 kts 193°
2026-04-23 08:27 15.33971 78.37544 36055 ft 389 kts 193°
2026-04-23 08:27 15.31293 78.37116 36323 ft 389 kts 193°
2026-04-23 08:27 15.28619 78.36689 36598 ft 388 kts 193°
2026-04-23 08:27 15.25988 78.36270 36775 ft 389 kts 193°
2026-04-23 08:28 15.20457 78.35393 36808 ft 395 kts 193°
2026-04-23 08:28 15.15167 78.34542 36829 ft 397 kts 193°
2026-04-23 08:29 15.09708 78.33665 36814 ft 397 kts 193°
2026-04-23 08:29 15.04246 78.32794 36813 ft 397 kts 193°
2026-04-23 08:30 14.99777 78.32078 36824 ft 398 kts 193°
2026-04-23 08:30 14.93313 78.31041 36822 ft 398 kts 193°
2026-04-23 08:31 14.87837 78.30170 36829 ft 398 kts 193°
2026-04-23 08:31 14.82360 78.29298 36832 ft 398 kts 193°
2026-04-23 08:32 14.76876 78.28436 36838 ft 398 kts 193°
2026-04-23 08:32 14.71403 78.27550 36835 ft 398 kts 193°
2026-04-23 08:33 14.65917 78.26660 36841 ft 399 kts 193°
2026-04-23 08:33 14.60434 78.25777 36832 ft 399 kts 192°
2026-04-23 08:34 14.54953 78.24899 36846 ft 399 kts 192°
2026-04-23 08:34 14.49470 78.24023 36841 ft 399 kts 192°
2026-04-23 08:35 14.43986 78.23146 36850 ft 399 kts 192°
2026-04-23 08:35 14.39425 78.22417 36850 ft 399 kts 192°
2026-04-23 08:36 14.33947 78.21544 36856 ft 398 kts 192°
2026-04-23 08:36 14.28470 78.20673 36859 ft 398 kts 192°
2026-04-23 08:37 14.22992 78.19795 36851 ft 398 kts 192°
2026-04-23 08:37 14.17520 78.18886 36859 ft 397 kts 196°
2026-04-23 08:38 14.12450 78.16782 36859 ft 393 kts 208°
2026-04-23 08:38 14.07562 78.14235 36862 ft 393 kts 208°
2026-04-23 08:39 14.02671 78.11702 36868 ft 393 kts 208°
2026-04-23 08:39 13.97783 78.09169 36884 ft 393 kts 208°
2026-04-23 08:40 13.92892 78.06637 36885 ft 394 kts 208°
2026-04-23 08:40 13.87993 78.04099 36885 ft 394 kts 207°
2026-04-23 08:41 13.83090 78.01555 36889 ft 395 kts 207°
2026-04-23 08:41 13.78176 77.99015 36892 ft 395 kts 207°
2026-04-23 08:42 13.73263 77.96478 36897 ft 395 kts 207°
2026-04-23 08:42 13.68351 77.93935 36921 ft 395 kts 207°
2026-04-23 08:43 13.63445 77.91395 36923 ft 395 kts 207°
2026-04-23 08:43 13.58538 77.88865 36924 ft 394 kts 207°
2026-04-23 08:44 13.53634 77.86335 36915 ft 394 kts 207°
2026-04-23 08:44 13.48730 77.83802 36913 ft 395 kts 207°
2026-04-23 08:45 13.43815 77.81269 36922 ft 395 kts 207°
2026-04-23 08:45 13.38895 77.78736 36938 ft 396 kts 207°
2026-04-23 08:46 13.33974 77.76196 36952 ft 396 kts 207°
2026-04-23 08:46 13.29056 77.73657 36955 ft 396 kts 207°
2026-04-23 08:47 13.24136 77.71124 36956 ft 396 kts 207°
2026-04-23 08:47 13.18943 77.69288 36946 ft 399 kts 190°
2026-04-23 08:48 13.13401 77.68744 36940 ft 400 kts 188°
2026-04-23 08:48 13.07849 77.68200 36940 ft 401 kts 188°
2026-04-23 08:49 13.02293 77.67649 36970 ft 401 kts 188°
2026-04-23 08:49 12.96730 77.67106 36973 ft 402 kts 188°
2026-04-23 08:50 12.91163 77.66562 36979 ft 402 kts 188°
2026-04-23 08:50 12.85589 77.66016 36985 ft 402 kts 188°
2026-04-23 08:51 12.80012 77.65469 36964 ft 403 kts 188°
2026-04-23 08:51 12.74433 77.64923 36957 ft 403 kts 188°
2026-04-23 08:52 12.68840 77.64380 36952 ft 403 kts 188°
2026-04-23 08:52 12.63250 77.63840 36939 ft 404 kts 188°
2026-04-23 08:53 12.57666 77.63290 36926 ft 404 kts 188°
2026-04-23 08:53 12.52067 77.62746 36928 ft 404 kts 188°
2026-04-23 08:54 12.46471 77.62202 36905 ft 404 kts 188°
2026-04-23 08:54 12.40863 77.61655 36904 ft 405 kts 188°
2026-04-23 08:55 12.35246 77.61110 36903 ft 405 kts 188°
2026-04-23 08:55 12.29628 77.60559 36896 ft 406 kts 188°
2026-04-23 08:56 12.23998 77.60013 36897 ft 406 kts 188°
2026-04-23 08:56 12.18372 77.59471 36886 ft 406 kts 188°
2026-04-23 08:57 12.12751 77.58925 36893 ft 406 kts 188°
2026-04-23 08:57 12.07141 77.58252 36880 ft 405 kts 195°
2026-04-23 08:58 12.01994 77.56132 36865 ft 403 kts 207°
2026-04-23 08:58 11.96992 77.53512 36873 ft 404 kts 207°
2026-04-23 08:59 11.91980 77.50906 36907 ft 405 kts 207°
2026-04-23 08:59 11.86963 77.48297 36892 ft 405 kts 207°
2026-04-23 09:00 11.81955 77.45677 36899 ft 405 kts 207°
2026-04-23 09:00 11.76943 77.43058 36904 ft 405 kts 207°
2026-04-23 09:01 11.71923 77.40447 36871 ft 405 kts 207°
2026-04-23 09:01 11.66898 77.37833 36866 ft 406 kts 207°
2026-04-23 09:02 11.61862 77.35216 36899 ft 406 kts 207°
2026-04-23 09:02 11.56824 77.32593 36874 ft 406 kts 207°
2026-04-23 09:03 11.51790 77.29975 36875 ft 406 kts 207°
2026-04-23 09:03 11.46753 77.27354 36858 ft 406 kts 207°
2026-04-23 09:04 11.41718 77.24739 36857 ft 406 kts 207°
2026-04-23 09:04 11.36683 77.22137 36884 ft 406 kts 207°
2026-04-23 09:05 11.31647 77.19529 36872 ft 406 kts 207°
2026-04-23 09:05 11.26611 77.16920 36874 ft 406 kts 207°
2026-04-23 09:06 11.21578 77.14320 36877 ft 406 kts 207°
2026-04-23 09:06 11.16537 77.11721 36877 ft 406 kts 207°
2026-04-23 09:07 11.11500 77.09117 36880 ft 406 kts 207°
2026-04-23 09:07 11.06464 77.06503 36883 ft 406 kts 206°
2026-04-23 09:08 11.01097 77.04795 36879 ft 408 kts 188°
2026-04-23 09:08 10.95416 77.04484 36872 ft 409 kts 185°
2026-04-23 09:09 10.89727 77.04206 36865 ft 410 kts 185°
2026-04-23 09:09 10.84029 77.03922 36861 ft 410 kts 185°
2026-04-23 09:10 10.75479 77.03502 36851 ft 410 kts 185°
2026-04-23 09:11 10.69779 77.03227 36836 ft 410 kts 185°
2026-04-23 09:11 10.64076 77.02952 36829 ft 410 kts 185°
2026-04-23 09:12 10.58376 77.02672 36830 ft 411 kts 185°
2026-04-23 09:12 10.52661 77.02397 36833 ft 411 kts 185°
2026-04-23 09:13 10.46942 77.02118 36832 ft 412 kts 185°
2026-04-23 09:13 10.41212 77.01833 36847 ft 412 kts 185°
2026-04-23 09:14 10.35497 77.01552 36839 ft 411 kts 185°
2026-04-23 09:14 10.32645 77.01413 36389 ft 410 kts 185°
2026-04-23 09:14 10.29795 77.01275 35805 ft 411 kts 184°
2026-04-23 09:14 10.26930 77.01136 35197 ft 412 kts 184°
2026-04-23 09:15 10.24058 77.00997 34638 ft 413 kts 184°
2026-04-23 09:15 10.21205 77.00859 34216 ft 409 kts 184°
2026-04-23 09:15 10.18369 77.00721 33821 ft 407 kts 184°
2026-04-23 09:15 10.15553 77.00585 33381 ft 404 kts 184°
2026-04-23 09:16 10.12756 77.00449 32871 ft 402 kts 184°
2026-04-23 09:16 10.09969 77.00314 32362 ft 400 kts 184°
2026-04-23 09:16 10.07196 77.00179 31847 ft 398 kts 185°
2026-04-23 09:16 10.04433 77.00042 31354 ft 397 kts 185°
2026-04-23 09:17 10.01674 76.99904 30862 ft 396 kts 185°
2026-04-23 09:17 9.98926 76.99769 30393 ft 395 kts 185°
2026-04-23 09:17 9.96192 76.99637 29922 ft 394 kts 185°
2026-04-23 09:17 9.94380 76.99550 29555 ft 393 kts 185°
2026-04-23 09:18 9.91653 76.99421 28992 ft 392 kts 185°
2026-04-23 09:18 9.88932 76.99292 28482 ft 391 kts 185°
2026-04-23 09:18 9.86227 76.99163 27986 ft 389 kts 185°
2026-04-23 09:18 9.83530 76.99034 27499 ft 387 kts 185°
2026-04-23 09:19 9.80847 76.98906 27042 ft 385 kts 184°
2026-04-23 09:19 9.78172 76.98779 26595 ft 384 kts 184°
2026-04-23 09:19 9.75504 76.98652 26163 ft 383 kts 184°
2026-04-23 09:19 9.72850 76.98526 25722 ft 381 kts 184°
2026-04-23 09:20 9.70202 76.98403 25309 ft 380 kts 184°
2026-04-23 09:20 9.67568 76.98283 24928 ft 378 kts 184°
2026-04-23 09:20 9.64944 76.98162 24785 ft 378 kts 185°
2026-04-23 09:20 9.62315 76.98037 24811 ft 379 kts 185°
2026-04-23 09:21 9.59693 76.97909 24467 ft 377 kts 185°
2026-04-23 09:21 9.57079 76.97780 24039 ft 375 kts 184°
2026-04-23 09:21 9.54470 76.97653 23582 ft 376 kts 184°
2026-04-23 09:21 9.51844 76.97510 22749 ft 384 kts 187°
2026-04-23 09:22 9.49183 76.97018 21744 ft 395 kts 194°
2026-04-23 09:22 9.46486 76.96367 21009 ft 400 kts 194°
2026-04-23 09:22 9.43779 76.95709 20407 ft 400 kts 194°
2026-04-23 09:22 9.41074 76.95051 19857 ft 399 kts 194°
2026-04-23 09:23 9.38374 76.94398 19393 ft 398 kts 193°
2026-04-23 09:23 9.35675 76.93748 19032 ft 400 kts 193°
2026-04-23 09:23 9.32967 76.93096 18694 ft 400 kts 193°
2026-04-23 09:23 9.30262 76.92444 18359 ft 399 kts 193°
2026-04-23 09:24 9.27563 76.91796 18025 ft 398 kts 193°
2026-04-23 09:24 9.24878 76.91154 17642 ft 396 kts 193°
2026-04-23 09:24 9.22200 76.90511 17262 ft 395 kts 193°
2026-04-23 09:24 9.19531 76.89868 16886 ft 394 kts 193°
2026-04-23 09:25 9.16867 76.89226 16518 ft 394 kts 193°
2026-04-23 09:25 9.14219 76.88588 16143 ft 390 kts 193°
2026-04-23 09:25 9.11584 76.87955 15726 ft 387 kts 192°
2026-04-23 09:25 9.08972 76.87328 15298 ft 385 kts 192°
2026-04-23 09:26 9.06376 76.86705 14878 ft 382 kts 192°
2026-04-23 09:26 9.03787 76.86083 14458 ft 382 kts 192°
2026-04-23 09:26 9.01209 76.85462 14050 ft 379 kts 192°
2026-04-23 09:26 8.98648 76.84846 13655 ft 377 kts 193°
2026-04-23 09:27 8.96112 76.84237 13207 ft 373 kts 192°
2026-04-23 09:27 8.93592 76.83631 12756 ft 371 kts 192°
2026-04-23 09:27 8.91086 76.83029 12311 ft 369 kts 192°
2026-04-23 09:27 8.88510 76.82411 11870 ft 392 kts 192°
2026-04-23 09:28 8.85833 76.81802 11431 ft 396 kts 187°
2026-04-23 09:28 8.83111 76.81762 11014 ft 389 kts 169°
2026-04-23 09:28 8.80549 76.82526 10603 ft 382 kts 152°
2026-04-23 09:28 8.78302 76.83907 10168 ft 377 kts 144°
2026-04-23 09:29 8.76141 76.85371 9767 ft 374 kts 143°
2026-04-23 09:29 8.73982 76.86846 9323 ft 372 kts 143°
2026-04-23 09:29 8.71841 76.88313 8874 ft 373 kts 143°
2026-04-23 09:29 8.69700 76.89778 8432 ft 371 kts 143°
2026-04-23 09:30 8.67565 76.91236 7993 ft 369 kts 143°
2026-04-23 09:30 8.65441 76.92687 7560 ft 368 kts 143°
2026-04-23 09:30 8.63327 76.94133 7135 ft 366 kts 143°